www.pogodaiklimat.ru

Погода и климат >> Архив погоды >> Россия >> Ростовская область >> Ростов-на-Дону


АРХИВ ПОГОДЫ в Ростове-на-Дону

Время (UTC), дата Ветер
(напр.,м/с)
 
Видим.   Явления Облачность Т
(С)
Тd
(С)
f
(%)
Тe
(С)
Тes
(С)
Комфортность P
(гПа)
Po
(гПа)
Тmin
(С)
Tmax
(С)
R
(мм)
R24
(мм)
S
(см)
03 5.12 С 5 5000 м слабый ливневой дождь 10/8 180 м
[Cb calv Ac und]
+4.5 +3.7 95 -1 -1 по сезону 1012.6 1003.4 +4.6 10
06 5.12 СЗ 4 10 км слабый ливневой дождь 10/6 840 м
[Cb calv Ac und]
+2.9 +1.2 89 -2 -2 по сезону 1013.9 1004.6 +2.9
09 5.12 СЗ 2 10 км {ливн. осадки} 8/3 1000 м
[Sc Ac trans Ci fib]
+2.9 +0.3 83 -0 +1 по сезону 1014.7 1005.4
12 5.12 СЗ 4 10 км {ливн. осадки} 8/4 600 м
[Sc Ac trans Ci fib]
+3.4 -0.8 74 -1 -1 по сезону 1014.8 1005.5
15 5.12 СЗ 2 8000 м 9/5 1000 м
[Sc Ac trans]
+2.2 -2.8 69 -1 -1 по сезону 1015.6 1006.3 +4.6 1
18 5.12 СЗ 2 8000 м 9/5 1230 м
[Sc Ac trans]
+1.5 -1.9 78 -2 -2 по сезону 1016.5 1007.2
21 5.12 СЗ 3 8000 м 8/4 1500 м
[Sc Ac trans]
+1.2 -2.3 77 -3 -3 по сезону 1016.5 1007.1
00 6.12 СЗ 2 7000 м дымка 8/0
[Ac trans Ci fib]
-0.2 -3.1 81 -4 -4 по сезону 1016.2 1006.8
03 6.12 З 1 7000 м дымка 6/3 1500 м
[Sc Ac trans Ci fib]
-1.4 -3.5 86 -4 -4 по сезону 1016.2 1006.8 -1.5
06 6.12 В 1 3500 м дымка {ливн. осадки} 9/5 360 м
[St Ac trans]
-0.9 -1.9 93 -3 -3 по сезону 1016.5 1007.1 -1.6
09 6.12 З 5 4900 м дымка 8/5 300 м
[Sc Ac trans]
+1.0 -0.9 87 -5 -4 по сезону 1015.8 1006.4
12 6.12 З 4 7000 м дымка 9/6 450 м
[Sc Ac trans]
+0.7 -1.8 83 -5 -4 по сезону 1015.3 1005.9
15 6.12 З 4 7000 м дымка 9/6 450 м
[Sc Ac trans]
+0.7 -1.8 83 -5 -5 по сезону 1015.3 1005.9
18 6.12 ЮЗ 4
{10}
7000 м дымка 8/5 600 м
[Sc Ac trans]
-0.8 -2.6 88 -6 -6 по сезону 1014.5 1005.1
21 6.12 ЮЗ 6 2400 м слабый ливневой снег 9/5 270 м
[Cb calv Ac trans]
-0.3 -1.5 92 -7 -7 по сезону 1012.2 1002.8
00 7.12 ЮЗ 5
{11}
7000 м слабый ливневой снег 10/8 210 м
[Cb calv Ac und]
+0.4 -0.2 96 -6 -6 по сезону 1010.4 1001.1
03 7.12 З 5 6000 м дымка {ливн. осадки} 9/6 1500 м
[Cb calv Ac trans]
+1.0 -0.2 92 -5 -5 по сезону 1010.5 1001.2 -0.9 2
06 7.12 З 4 7000 м дымка {ливн. осадки} 9/5 200 м
[Sc Ac trans]
+1.2 -0.6 88 -4 -4 по сезону 1011.4 1002.1
09 7.12 СЗ 4 10 км 8/4 1000 м
[Sc Ac trans]
+1.4 -2.9 73 -3 -3 по сезону 1011.4 1002.1
12 7.12 СЗ 5 10 км 9/5 1170 м
[Cb calv Ac trans]
+1.3 -4.8 64 -4 -4 по сезону 1012.0 1002.7
15 7.12 З 3 8000 м 6/4 1000 м
[Cb calv Ac trans]
0.0 -4.6 71 -4 -4 по сезону 1013.7 1004.3 +1.9
18 7.12 З 4 8000 м 8/3 1500 м
[Sc Ac trans]
0.0 -3.7 76 -5 -5 по сезону 1014.7 1005.3
21 7.12 З 4 8000 м 9/5 1500 м
[Cb calv Ac trans]
+0.2 -3.9 74 -5 -5 по сезону 1015.0 1005.6
00 8.12 СЗ 2 8000 м 9/4 1500 м
[Sc Ac trans]
-0.1 -3.7 77 -4 -4 по сезону 1015.7 1006.3
03 8.12 СЗ 2 8000 м 3/0
[Ac trans]
-2.1 -4.3 85 -6 -6 по сезону 1016.8 1007.3 -2.1
06 8.12 СЗ 1 6000 м дымка 4/0
[Ac trans]
-1.0 -2.4 90 -3 -3 по сезону 1018.5 1009.1 -3.8
09 8.12 СЗ 2 10 км 8/0
[Ac trans]
+0.9 -4.6 67 -2 -1 по сезону 1019.3 1009.9
12 8.12 Ю 1 10 км 9/0
[Ac trans]
+1.4 -3.9 68 0 0 по сезону 1019.2 1009.8
15 8.12 В 1 8000 м 5/0
[Ac trans]
-0.8 -3.8 80 -3 -3 по сезону 1020.2 1010.7 +1.6
18 8.12 ЮВ 2 5000 м дымка 9/6 240 м
[Sc Ac trans]
+0.3 -1.1 90 -3 -3 по сезону 1020.7 1011.3
21 8.12 ЮВ 2 3100 м слабый дождь 10/8 120 м
[Sc Ac und]
+0.4 -0.6 93 -3 -3 по сезону 1021.1 1011.7
00 9.12 ЮВ 2 3400 м дымка {дождь} 10/8 150 м
[Sc Ac und]
+0.3 -0.6 94 -3 -3 по сезону 1021.1 1011.7
03 9.12 ЮВ 3 100 м туман ?/? +0.6 0.0 96 -4 -4 по сезону 1021.0 1011.6 -1.3 0.0
06 9.12 В 4 200 м туман ?/? +1.0 +0.6 97 -4 -4 по сезону 1020.9 1011.5
09 9.12 ЮВ 3 4700 м дымка {туман} 9/5 240 м
[St Ac trans]
+2.6 +2.1 97 -2 -1 по сезону 1019.9 1010.6
12 9.12 ЮВ 3 7000 м дымка {туман} 8/4
[Sc Ac trans]
+5.8 +3.9 88 +2 +3 тепло 1019.1 1009.9
15 9.12 В 2 5000 м дымка 9/4 1500 м
[Sc Ac trans]
+4.3 +3.1 92 +1 +1 тепло 1018.6 1009.3 +5.8
18 9.12 Ю 5 8000 м 9/4 1500 м
[Sc Ac trans]
+7.1 +4.8 85 +3 +3 тепло 1018.7 1009.5
21 9.12 Ю 3 8000 м 6/0
[Ac trans]
+6.3 +3.6 83 +3 +3 тепло 1019.0 1009.8
00 10.12 Ю 3 8000 м 9/3 1500 м
[Sc Ac trans]
+6.6 +3.2 79 +4 +4 тепло 1018.8 1009.6
03 10.12 Ю 3 8000 м 8/0
[Ac trans]
+5.9 +1.8 75 +3 +3 тепло 1018.1 1008.9 +4.2
06 10.12 В 1 10 км 5/0
[Ac trans]
+4.9 +0.1 71 +4 +4 тепло 1018.1 1008.9 +2.6
09 10.12 ЮВ 5 10 км 3/0
[Ac trans Ci fib]
+9.0 +1.4 59 +6 +7 тепло 1016.6 1007.5
12 10.12 ЮВ 5 10 км 3/0
[Ac trans]
+11.2 +0.9 49 +9 +9 тепло 1014.3 1005.3
15 10.12 ЮВ 4 8000 м 5/0
[Ac trans Ci fib]
+6.3 +2.5 77 +3 +3 тепло 1013.3 1004.2 +11.9
18 10.12 ЮВ 5 8000 м 1/0
[Ac trans]
+4.9 +1.5 79 0 0 тепло 1012.4 1003.2
21 10.12 Ю 3 6000 м слабый ливневой дождь 9/5 1200 м
[Cb calv Ac trans]
+4.3 +0.9 79 +1 +1 тепло 1012.5 1003.3
00 11.12 ЮЗ 6
{10}
8000 м слабый ливневой дождь 10/4 1110 м
[Cb calv Ac und]
+4.9 +3.5 91 -0 -0 тепло 1014.6 1005.4
03 11.12 З 7-10
{16}
8000 м {ливн. осадки} 9/3 660 м
[Sc Ac trans]
+2.6 -0.5 80 -4 -4 по сезону 1018.5 1009.2 +2.4 0.0
06 11.12 З 6
{16}
10 км 6/4 300 м
[Sc Ac trans]
+2.2 -1.2 78 -4 -4 по сезону 1021.6 1012.2 +2.0
09 11.12 З 6
{11}
10 км 8/0
[Ac trans Ci fib]
+4.7 -2.3 60 -0 +1 тепло 1023.1 1013.8
12 11.12 ЮЗ 4
{11}
10 км 8/3 1000 м
[Sc Ac trans Ci fib]
+6.1 +0.1 65 +3 +3 тепло 1023.4 1014.2
15 11.12 Ю 4 8000 м 8/0
[Ac trans Ci fib]
+4.9 +1.2 77 +1 +1 тепло 1024.6 1015.3 +6.5
18 11.12 Ю 4 8000 м 8/3 1260 м
[Sc Ac trans]
+5.1 +1.3 76 +1 +1 тепло 1024.2 1014.9
21 11.12 Ю 4 8000 м 8/3 1000 м
[Sc Ac trans]
+5.0 +1.6 79 +1 +1 тепло 1023.6 1014.3
00 12.12 Ю 6 8000 м слабый ливневой дождь 9/6 1140 м
[Cb calv Ac trans]
+5.5 +1.7 76 +1 +1 тепло 1023.0 1013.7

 

Местоположение метеостанции Ростов-на-Дону (Ростовская область, Россия): широта 47.27 долгота 39.82 высота над уровнем моря 75 м.

В архиве по умолчанию представлена погода в Ростове-на-Дону за последнюю неделю. Архивные данные за месяц целиком и за предыдущие месяцы, начиная с января 2011 года, Вы можете получить, выбрав интересующий диапазон дат из раскрывающегося списка и нажав кнопку "Ввод!".

Внимание! Время в таблицах - всемирное. Для получения местного времени необходимо прибавить поправку, которая в Ростове-на-Дону равна 3 ч.

Смотрите также архив погоды в соседних городах и на ближайших метеорологических станциях:

Погода в Шахтах (Ростовская область, Россия) (59 км)
Погода в Зерноград (Ростовская область, Россия) (60 км)
Погода в Таганроге (Ростовская область, Россия) (70 км)
Погода в Матвеевом Кургане (Ростовская область, Россия) (78 км)
Погода в Семикаракорске (Ростовская область, Россия) (81 км)
Погода в Маргаритово (Ростовская область, Россия) (81 км)
Погода в Кущевской (Краснодарский край, Россия) (84 км)
Погода в Константиновске (Ростовская область, Россия) (102 км)
Погода в Староминская (Краснодарский край, Россия) (102 км)
Погода в Каменск-Шахтинском (Ростовская область, Россия) (120 км)

Пояснения к столбцам:

Ветер - указаны скорость ветра в м/с - средняя за 10 мин, порывы в срок и между сроками (в фигурных скобках) и направление, откуда дует ветер: С - северный, СВ - северо-восточный, В - восточный, ЮВ - юго-восточный, Ю - южный, ЮЗ - юго-западный, З - западный, СЗ - северо-западный.
Видимость - горизонтальная дальность видимости в метрах или километрах. При видимости от 1 до 10 км при отсутствии осадков обычно наблюдается дымка, при ухудшении видимости до 1 км и менее - туман. В сухую погоду видимость может ухудшаться дымом, пылью или мглою.
Явления - указаны атмосферные явления, наблюдавшиеся в срок или в последний час перед сроком; фигурными скобками обозначены явления, наблюдавшиеся между сроками (за 1-3 часа до срока); квадратными скобками обозначены град или гололедные отложения с указанием их диаметра в мм.
Облачность - указаны через наклонную черту общая и нижняя облачность в баллах и высота нижней границы облаков в метрах; квадратными скобками обозначены формы облаков: Ci - перистые, Cs - перисто-слоистые, Cc - перисто-кучевые, Ac - высококучевые, As - высокослоистые, Sc - слоисто-кучевые, Ns - слоисто-дождевые, Cu - кучевые, Cb - кучево-дождевые. Подробнее классификацию облаков см. в Атласе облаков (PDF).
T - Температура воздуха - температура, измеренная на высоте 2 м над землей.
Td - Температура точки росы - температура, при понижении до которой содержащийся в воздухе водяной пар достигнет насыщения.
f - Относительная влажность воздуха - влажноcть воздуха, измеренная на высоте 2 м над землей.
Te - Эффективная температура - температура, которую ощущает одетый по сезону человек в тени. Характеристика душности погоды. При расчете учитывается влияние влажности воздуха и скорости ветра на теплоощущения человека.
Tes - Эффективная температура на солнце - температура, которую ощущает человек, с поправкой на солнечный нагрев. Характеристика знойности погоды. Зависит от высоты солнца над горизонтом, облачности и скорости ветра. Ночью, в пасмурную погоду, а также при ветре 12 м/с и более поправка равна нулю.
P - Атмосферное давление - приведенное к уровню моря атмосферное давление.
Po - Атмосферное давление - измеренное на уровне метеостанции атмосферное давление.
Tmin - Минимальная температура - минимум температуры воздуха на высоте 2 м над землей.
Tmax - Максимальная температура - максимум температуры воздуха на высоте 2 м над землей.
R - Количество осадков - Количество выпавших осадков за период времени, мм. При наведении курсора мыши на число - период времени, за который выпало указанное количество осадков.
R24 - Количество осадков - Количество выпавших осадков за 24 часа, мм.
S - Снежный покров - Высота снежного покрова, см. При наведении курсора мыши на число - состояние снежного покрова и степень покрытия местности в баллах.